Location: Houston
(29.7630°N, 95.3630°W)
Time: 16:30:58
(UTC-05:00)

Daily predictions for brighter satellites

Satellite Brightness Start Highest point End
(mag) Time Altitude Azimuth Time Altitude Azimuth Time Altitude Azimuth
Cosmos 2333 Rocket 2.3 20:32:00 10° SSW 20:37:38 86° WNW 20:43:18 10° NNE
Resurs 01 Rocket 2.6 20:34:56 10° S 20:39:14 50° W 20:43:34 10° NNW
Cosmos 1452 Rocket 3.9 20:34:00 10° NNW 20:39:14 69° WSW 20:44:26 10° S
ATLAS 3B CENTAUR R/B 3.1 20:37:47 10° WSW 20:40:53 27° S 20:47:17 10° SE
Okean 1-7 Rocket 3.6 20:36:41 10° S 20:41:06 87° W 20:45:30 10° N
Cosmos 1242 Rocket 3.2 20:44:49 10° SSW 20:48:28 63° W 20:52:12 10° N
H-2A R/B 3.5 20:45:29 10° SE 20:49:05 36° ENE 20:52:43 10° N
Cosmos 1975 2.8 20:45:20 10° N 20:49:20 74° E 20:53:18 10° S
Cosmos 1725 Rocket 4.0 20:44:42 10° N 20:50:59 84° E 20:57:13 10° S
Cosmos 2098 Rocket 3.2 20:49:46 10° NNE 20:53:05 40° E 20:57:08 10° SSE
ATLAS CENTAUR R/B 2.2 20:48:31 10° SSW 20:53:20 72° WNW 20:58:22 10° NNE
Cosmos 1980 4.4 20:48:15 10° SSW 20:53:50 62° WNW 20:59:27 10° NNE
Cosmos 158 Rocket 3.9 20:49:07 10° S 20:54:03 72° ESE 20:59:11 10° NNE
USA 186 2.1 20:51:37 10° SSE 20:54:31 41° ENE 20:57:15 10° N
Cosmos 1844 3.8 20:48:57 10° NNW 20:54:42 66° ENE 21:00:27 10° SSE
Cosmos 1844 Rocket 2.8 20:50:10 10° NNW 20:55:51 87° WSW 21:01:28 10° SSE
SeaSat 1 4.5 20:54:21 10° E 20:56:31 13° NE 20:58:42 10° NNE
Cosmos 2251 Rocket 3.5 20:55:21 10° S 21:00:34 67° ESE 21:05:52 10° NNE
Hubble Space Telescope 1.7 20:58:24 10° W 21:02:13 35° SSW 21:05:15 14° SE
Cosmos 1025 Rocket 3.0 20:58:07 10° S 21:02:27 65° E 21:06:48 10° NNE
Cosmos 1892 Rocket 4.0 20:58:21 10° SSE 21:02:30 41° E 21:06:41 10° NNE
FENGYUN 3A 3.7 20:57:18 10° SSE 21:02:34 62° ENE 21:07:52 10° N
RESURS DK-1 3.4 21:01:27 10° NW 21:05:24 44° WSW 21:09:19 10° S
Intelsat 5-2 Rocket 4.0 21:04:39 10° SW 21:06:11 15° S 21:07:08 13° SSE
Atlas Centaur 2 3.2 21:03:47 10° SW 21:10:49 47° SSE 21:18:51 10° E
ALOS 2.2 21:07:29 10° SSE 21:12:08 84° E 21:16:50 10° N
OTV 4 0.6 21:10:55 10° WNW 21:13:52 62° NNE 21:15:32 23° E
COSMOS 2455 4.1 21:13:20 16° ESE 21:14:46 18° ESE 21:18:35 10° ENE
Cosmos 2237 Rocket 3.6 21:11:30 10° SW 21:16:45 41° WNW 21:22:03 10° N
Envisat 4.2 21:16:48 17° ESE 21:19:17 25° ENE 21:23:23 10° NNE
ERS-1 Rocket 3.2 21:16:51 16° SSE 21:20:47 53° ENE 21:25:40 10° N
Cosmos 1939 Rocket 4.0 21:19:31 20° ESE 21:21:18 28° ENE 21:24:52 10° NNE
CZ-2D R/B 4.3 21:22:14 10° S 21:25:57 45° W 21:29:43 10° NNW
Cosmos 2278 Rocket 2.2 21:24:37 10° NNW 21:30:19 90° WSW 21:34:39 18° SSE
GEOS 3 Rocket 3.8 21:27:10 17° SSE 21:31:21 73° WSW 21:36:35 10° NW
YAOGAN 11 4.3 21:28:34 12° S 21:32:33 72° WSW 21:36:54 10° NNW
Cosmos 1726 Rocket 3.5 21:30:06 10° N 21:34:31 69° E 21:37:06 24° SSE
Cosmos 2233 Rocket 4.3 21:28:21 10° N 21:34:33 70° W 21:40:40 10° S
Lacrosse 5 rocket 4.1 21:34:08 10° W 21:37:01 20° NW 21:40:01 10° N
Cosmos 1464 Rocket 4.1 21:35:42 10° N 21:41:43 56° E 21:45:12 26° SSE
SL-16 R/B 2.8 21:37:25 10° SSW 21:42:58 59° WNW 21:48:34 10° N
Cosmos 2058 Rocket 3.0 21:38:39 10° N 21:42:59 64° E 21:44:45 34° SSE
Aureole 2 Rocket 2.6 21:41:30 10° SSW 21:45:40 81° ESE 21:49:31 10° NNE
Cosmos 1602 Rocket 3.9 21:45:02 36° SE 21:46:15 45° E 21:50:32 10° NNE
Okean 2 3.5 21:42:51 13° S 21:46:33 78° W 21:50:44 10° N
Cosmos 1072 Rocket 4.5 21:41:30 10° N 21:47:47 72° E 21:51:48 24° SSE
Cosmos 1666 3.2 21:45:25 10° N 21:49:06 40° E 21:49:17 40° E
Meteor 1-23 Rocket 4.5 21:46:21 10° SSW 21:51:55 70° W 21:57:36 10° N
Cosmos 1743 3.6 21:54:34 10° NNW 21:58:15 45° W 22:00:13 23° SSW
Cosmos 2034 Rocket 4.1 21:52:43 10° N 21:58:59 58° E 22:01:30 36° SE
UNK 4.1 21:55:23 10° NNE 22:00:50 74° ESE 22:04:38 22° S
PSLV R/B 4.3 22:02:41 10° WSW 22:06:07 47° NNW 22:07:53 24° NE
CZ-2C R/B 3.4 22:06:03 14° W 22:06:08 14° W 22:07:27 10° WNW
H-2A R/B 2.9 22:08:27 27° SSW 22:10:14 44° W 22:14:19 10° NNW
MetOp-B 4.3 22:10:02 47° ESE 22:11:07 56° ENE 22:16:21 10° N
Cosmos 1603 3.6 22:06:39 14° SSW 22:11:37 86° ESE 22:17:14 10° NNE
DEBRIS 4.3 22:12:39 10° NNW 22:15:03 19° NNE 22:15:03 19° NNE
SPOT 5 2.6 22:17:32 67° S 22:18:08 87° W 22:22:32 10° NNW
CZ-4 R/B 4.0 22:13:40 10° NNE 22:18:29 56° E 22:18:29 56° E
Milstar 3 Cent rocket 2.4 22:13:07 10° W 22:19:26 48° SSW 22:19:50 47° S
Geosat 3.9 22:14:42 10° NNE 22:19:41 64° ESE 22:19:56 63° SE
Cosmos 1626 Rocket 3.8 22:18:55 43° SSW 22:20:12 66° W 22:24:38 10° N
Delta 168 3.9 22:16:23 10° WSW 22:19:14 39° SSW 22:19:14 39° SSW
Cosmos 1331 Rocket 4.4 22:17:41 10° NNW 22:22:47 57° WSW 22:24:16 41° SSW
Meteor 2-9 Rocket 4.4 22:17:21 10° NNW 22:23:01 69° W 22:25:16 38° SSW
Cosmos 1302 Rocket 3.8 22:26:06 10° NNW 22:31:21 88° WSW 22:31:50 74° S
Cosmos 2297 4.3 22:26:21 10° NNW 22:31:51 50° WSW 22:33:35 37° SSW
SeaSat 1 2.5 22:32:58 62° SSW 22:33:29 67° WSW 22:38:24 10° NNW
APEX 3.8 22:33:31 10° NNW 22:37:53 87° WNW 22:37:53 87° WNW
Cosmos 1943 3.7 22:39:29 46° ENE 22:39:29 46° ENE 22:43:47 10° NNE
Cosmos 2346 Rocket 4.4 22:41:46 65° ESE 22:41:58 65° E 22:48:05 10° NNE
CZ-4B R/B 4.2 22:37:14 10° N 22:42:10 52° WNW 22:44:18 32° SW
Meteor 2-12 Rocket 4.3 22:36:19 10° N 22:42:25 71° E 22:42:43 69° ESE
Cosmos 2228 4.4 22:40:18 10° NNW 22:44:15 33° W 22:44:52 32° WSW
YAOGAN 6 4.2 22:47:30 34° NNW 22:47:30 34° NNW 22:49:44 10° NNW
Terra 3.5 22:51:59 24° NE 22:51:59 24° NE 22:54:31 10° NNE
COSMOS 2455 3.5 22:56:15 21° SW 23:00:10 52° WNW 23:06:02 10° NNE
Atlas Centaur 2 2.9 22:52:26 10° WSW 23:00:34 84° S 23:03:19 49° E
ATLAS 3B R/B 2.8 23:05:15 65° S 23:06:31 82° ESE 23:14:10 10° NNE
USA 81 4.5 23:04:27 10° N 23:08:46 60° NNW 23:08:46 60° NNW
USA 234 3.1 23:15:12 80° SW 23:15:13 80° SW 23:21:48 10° NW
Lacrosse 4 Rocket 4.3 23:26:58 10° NNE 23:26:58 10° NNE 23:27:00 10° NNE
ARGOS 4.2 23:29:43 40° WNW 23:29:43 40° WNW 23:34:04 10° NNW
H-2A R/B 3.2 23:31:07 38° N 23:31:07 38° N 23:34:09 10° NNW
Cosmos 2369 Rocket 3.1 23:24:04 10° N 23:28:01 41° NNE 23:28:01 41° NNE
